Location: Kra?nica
(53.4833°N, 14.6167°E)
Time: 18:15:59
(UTC+00:00)

Cosmos 2082 Rocket - Pass Details

Date: 23 May 2024
Orbit: 832 x 853 km, 71.0° (Epoch: 12 June)

Event Time Altitude Azimuth Distance (km) Brightness Sun altitude
Exits shadow 01:48:52 - 251° (WSW) 3,030 4.6 -7.3°
Reaches altitude 10° 01:50:30 10° 258° (WSW) 2,487 4.2 -7.1°
Maximum altitude 01:55:33 31° 320° (NW) 1,454 3.6 -6.6°
Drops below altitude 10° 02:00:37 10° 23° (NNE) 2,493 6.1 -6.1°
Sets 02:03:22 0° 33° (NNE) 3,429 7.7 -5.8°
